Time,TemperatureF,DewpointF,PressureIn,WindDirection,WindDirectionDegrees,WindSpeedMPH,WindSpeedGustMPH,Humidity,HourlyPrecipIn,Conditions,Clouds,dailyrainin,SoftwareType,DateUTC
2013-05-13 00:01:00,64.8,-99.9,25.19,ESE,120,2.0,4.0,-999,0.00,,,-99.99,FreeWX 2.04,2013-05-13 06:01:00,
2013-05-13 00:06:00,64.4,-99.9,25.19,ESE,120,2.0,4.5,-999,0.00,,,-99.99,FreeWX 2.04,2013-05-13 06:06:00,
2013-05-13 00:11:00,64.6,-99.9,25.19,ESE,116,2.0,5.8,-999,0.00,,,-99.99,FreeWX 2.04,2013-05-13 06:11:00,
2013-05-13 00:16:00,64.6,-99.9,25.19,ESE,110,3.0,5.4,-999,0.00,,,-99.99,FreeWX 2.04,2013-05-13 06:16:00,
2013-05-13 00:21:00,64.6,-99.9,25.19,ESE,108,2.0,4.5,-999,0.00,,,-99.99,FreeWX 2.04,2013-05-13 06:21:00,
2013-05-13 00:26:00,64.8,-99.9,25.19,ESE,108,1.0,3.1,-999,0.00,,,-99.99,FreeWX 2.04,2013-05-13 06:26:00,
2013-05-13 00:31:00,64.8,-99.9,25.19,ESE,108,1.0,4.0,-999,0.00,,,-99.99,FreeWX 2.04,2013-05-13 06:31:00,
2013-05-13 00:36:00,64.4,-99.9,25.19,North,-999,0.0,0.0,-999,0.00,,,-99.99,FreeWX 2.04,2013-05-13 06:36:00,
2013-05-13 00:41:00,64.6,-99.9,25.19,North,-999,0.0,0.0,-999,0.00,,,-99.99,FreeWX 2.04,2013-05-13 06:41:00,
2013-05-13 00:46:00,64.8,-99.9,25.19,North,-999,0.0,4.9,-999,0.00,,,-99.99,FreeWX 2.04,2013-05-13 06:46:00,
2013-05-13 00:51:00,64.2,-99.9,25.19,North,-999,0.0,2.7,-999,0.00,,,-99.99,FreeWX 2.04,2013-05-13 06:51:00,
2013-05-13 00:56:00,64.8,-99.9,25.19,North,-999,0.0,3.6,-999,0.00,,,-99.99,FreeWX 2.04,2013-05-13 06:56:00,
2013-05-13 01:01:00,65.1,-99.9,25.19,North,-999,0.0,3.1,-999,0.00,,,-99.99,FreeWX 2.04,2013-05-13 07:01:00,
2013-05-13 01:06:00,65.1,-99.9,25.19,ESE,107,1.0,4.5,-999,0.00,,,-99.99,FreeWX 2.04,2013-05-13 07:06:00,
2013-05-13 01:11:00,64.6,-99.9,25.19,ESE,107,1.0,3.6,-999,0.00,,,-99.99,FreeWX 2.04,2013-05-13 07:11:00,
2013-05-13 01:16:00,64.4,-99.9,25.19,ESE,108,1.0,5.4,-999,0.00,,,-99.99,FreeWX 2.04,2013-05-13 07:16:00,
2013-05-13 01:21:00,63.1,7.9,25.19,ESE,108,2.0,4.5,11,0.00,,,-99.99,FreeWX 2.04,2013-05-13 07:21:00,
2013-05-13 01:26:00,61.9,10.6,25.22,ESE,109,2.0,4.5,13,0.00,,,-99.99,FreeWX 2.04,2013-05-13 07:26:00,
2013-05-13 01:31:00,61.9,10.6,25.22,ESE,103,3.0,5.8,13,0.00,,,-99.99,FreeWX 2.04,2013-05-13 07:31:00,
2013-05-13 01:36:00,61.3,14.7,25.22,East,80,2.0,4.0,16,0.00,,,-99.99,FreeWX 2.04,2013-05-13 07:36:00,
2013-05-13 01:41:00,61.7,15.1,25.22,ENE,74,2.0,5.8,16,0.00,,,-99.99,FreeWX 2.04,2013-05-13 07:41:00,
2013-05-13 01:46:00,61.9,15.3,25.22,East,85,3.0,4.5,16,0.00,,,-99.99,FreeWX 2.04,2013-05-13 07:46:00,
2013-05-13 01:51:00,62.1,15.4,25.22,East,95,2.0,5.4,16,0.00,,,-99.99,FreeWX 2.04,2013-05-13 07:51:00,
2013-05-13 01:56:00,61.9,15.3,25.22,ESE,119,2.0,3.6,16,0.00,,,-99.99,FreeWX 2.04,2013-05-13 07:56:00,
2013-05-13 02:01:00,62.2,15.4,25.22,SE,128,2.0,5.8,16,0.00,,,-99.99,FreeWX 2.04,2013-05-13 08:01:00,
2013-05-13 02:06:00,62.1,15.4,25.22,ESE,115,3.0,4.9,16,0.00,,,-99.99,FreeWX 2.04,2013-05-13 08:06:00,
2013-05-13 02:11:00,61.5,14.9,25.22,ESE,104,2.0,3.6,16,0.00,,,-99.99,FreeWX 2.04,2013-05-13 08:11:00,
2013-05-13 02:16:00,59.7,20.8,25.22,ESE,104,1.0,4.0,22,0.00,,,-99.99,FreeWX 2.04,2013-05-13 08:16:00,
2013-05-13 02:21:00,59.4,22.6,25.22,ESE,104,2.0,3.6,24,0.00,,,-99.99,FreeWX 2.04,2013-05-13 08:21:00,
2013-05-13 02:26:00,60.1,23.2,25.22,ESE,104,2.0,4.9,24,0.00,,,-99.99,FreeWX 2.04,2013-05-13 08:26:00,
2013-05-13 02:31:00,61.0,23.9,25.22,ESE,102,2.0,4.0,24,0.00,,,-99.99,FreeWX 2.04,2013-05-13 08:31:00,
2013-05-13 02:36:00,61.3,21.0,25.22,East,100,2.0,4.5,21,0.00,,,-99.99,FreeWX 2.04,2013-05-13 08:36:00,
2013-05-13 02:41:00,61.9,18.0,25.22,East,100,3.0,5.4,18,0.00,,,-99.99,FreeWX 2.04,2013-05-13 08:41:00,
2013-05-13 02:46:00,61.7,19.0,25.22,East,93,4.0,5.4,19,0.00,,,-99.99,FreeWX 2.04,2013-05-13 08:46:00,
2013-05-13 02:51:00,61.0,20.8,25.22,East,86,3.0,4.5,21,0.00,,,-99.99,FreeWX 2.04,2013-05-13 08:51:00,
2013-05-13 02:56:00,61.3,18.7,25.22,East,84,1.0,3.1,19,0.00,,,-99.99,FreeWX 2.04,2013-05-13 08:56:00,
2013-05-13 03:01:00,61.0,20.8,25.22,ENE,74,2.0,5.4,21,0.00,,,-99.99,FreeWX 2.04,2013-05-13 09:01:00,
2013-05-13 03:06:00,61.0,20.8,25.22,ENE,64,3.0,5.4,21,0.00,,,-99.99,FreeWX 2.04,2013-05-13 09:06:00,
2013-05-13 03:11:00,59.2,23.4,25.22,NE,53,3.0,6.9,25,0.00,,,-99.99,FreeWX 2.04,2013-05-13 09:11:00,
2013-05-13 03:16:00,58.3,24.4,25.22,NE,47,4.0,5.8,27,0.00,,,-99.99,FreeWX 2.04,2013-05-13 09:16:00,
2013-05-13 03:21:00,57.7,26.6,25.22,ENE,63,3.0,5.4,30,0.00,,,-99.99,FreeWX 2.04,2013-05-13 09:21:00,
2013-05-13 03:26:00,57.0,28.9,25.22,ENE,75,2.0,4.9,34,0.00,,,-99.99,FreeWX 2.04,2013-05-13 09:26:00,
2013-05-13 03:31:00,57.2,29.8,25.22,ENE,73,3.0,5.4,35,0.00,,,-99.99,FreeWX 2.04,2013-05-13 09:31:00,
2013-05-13 03:36:00,57.6,30.2,25.22,ENE,71,3.0,4.5,35,0.00,,,-99.99,FreeWX 2.04,2013-05-13 09:36:00,
2013-05-13 03:41:00,56.8,29.5,25.22,ENE,71,3.0,4.9,35,0.00,,,-99.99,FreeWX 2.04,2013-05-13 09:41:00,
2013-05-13 03:46:00,57.6,30.2,25.22,ENE,61,4.0,6.3,35,0.00,,,-99.99,FreeWX 2.04,2013-05-13 09:46:00,
2013-05-13 03:51:00,59.2,27.7,25.22,NNE,12,5.0,7.4,30,0.00,,,-99.99,FreeWX 2.04,2013-05-13 09:51:00,
2013-05-13 03:56:00,58.1,28.4,25.22,North,357,5.0,7.8,32,0.00,,,-99.99,FreeWX 2.04,2013-05-13 09:56:00,
2013-05-13 04:02:00,56.7,29.3,25.22,NNE,16,5.0,6.9,35,0.00,,,-99.99,FreeWX 2.04,2013-05-13 10:02:00,
2013-05-13 04:07:00,56.5,29.8,25.22,NNE,21,5.0,6.9,36,0.00,,,-99.99,FreeWX 2.04,2013-05-13 10:07:00,
2013-05-13 04:12:00,55.9,30.0,25.22,NNE,20,4.0,5.4,37,0.00,,,-99.99,FreeWX 2.04,2013-05-13 10:12:00,
2013-05-13 04:17:00,56.1,30.2,25.22,NNE,20,3.0,5.4,37,0.00,,,-99.99,FreeWX 2.04,2013-05-13 10:17:00,
2013-05-13 04:22:00,57.2,30.6,25.22,North,8,4.0,6.3,36,0.00,,,-99.99,FreeWX 2.04,2013-05-13 10:22:00,
2013-05-13 04:27:00,57.6,30.2,25.22,North,358,4.0,6.3,35,0.00,,,-99.99,FreeWX 2.04,2013-05-13 10:27:00,
2013-05-13 04:32:00,57.4,30.0,25.22,North,2,4.0,5.8,35,0.00,,,-99.99,FreeWX 2.04,2013-05-13 10:32:00,
2013-05-13 04:37:00,57.0,29.7,25.22,North,353,4.0,5.8,35,0.00,,,-99.99,FreeWX 2.04,2013-05-13 10:37:00,
2013-05-13 04:42:00,56.7,30.0,25.22,North,349,3.0,4.5,36,0.00,,,-99.99,FreeWX 2.04,2013-05-13 10:42:00,
2013-05-13 04:47:00,55.6,29.7,25.22,North,11,2.0,4.0,37,0.00,,,-99.99,FreeWX 2.04,2013-05-13 10:47:00,
2013-05-13 04:52:00,55.2,30.0,25.22,NNE,21,3.0,6.3,38,0.00,,,-99.99,FreeWX 2.04,2013-05-13 10:52:00,
2013-05-13 04:57:00,54.9,30.4,25.22,NNE,22,4.0,6.3,39,0.00,,,-99.99,FreeWX 2.04,2013-05-13 10:57:00,
2013-05-13 05:02:00,55.0,30.6,25.22,NNE,26,4.0,5.8,39,0.00,,,-99.99,FreeWX 2.04,2013-05-13 11:02:00,
2013-05-13 05:07:00,55.4,30.2,25.22,NNE,25,3.0,4.0,38,0.00,,,-99.99,FreeWX 2.04,2013-05-13 11:07:00,
2013-05-13 05:12:00,57.2,30.6,25.22,NNE,22,2.0,5.4,36,0.00,,,-99.99,FreeWX 2.04,2013-05-13 11:12:00,
2013-05-13 05:17:00,58.5,29.5,25.22,North,0,3.0,5.8,33,0.00,,,-99.99,FreeWX 2.04,2013-05-13 11:17:00,
2013-05-13 05:22:00,58.8,27.5,25.22,NNW,337,4.0,6.3,30,0.00,,,-99.99,FreeWX 2.04,2013-05-13 11:22:00,
2013-05-13 05:27:00,58.5,27.1,25.22,NNW,341,4.0,4.9,30,0.00,,,-99.99,FreeWX 2.04,2013-05-13 11:27:00,
2013-05-13 05:32:00,57.2,28.4,25.22,NNW,345,4.0,4.9,33,0.00,,,-99.99,FreeWX 2.04,2013-05-13 11:32:00,
2013-05-13 05:37:00,56.3,28.9,25.22,NNW,347,4.0,5.8,35,0.00,,,-99.99,FreeWX 2.04,2013-05-13 11:37:00,
2013-05-13 05:42:00,55.8,29.3,25.22,North,353,4.0,6.3,36,0.00,,,-99.99,FreeWX 2.04,2013-05-13 11:42:00,
2013-05-13 05:47:00,56.5,29.8,25.22,NNW,345,5.0,9.6,36,0.00,,,-99.99,FreeWX 2.04,2013-05-13 11:47:00,
2013-05-13 05:52:00,56.8,30.2,25.22,NNW,334,6.0,8.3,36,0.00,,,-99.99,FreeWX 2.04,2013-05-13 11:52:00,
2013-05-13 05:57:00,56.7,30.0,25.22,NNW,331,6.0,8.3,36,0.00,,,-99.99,FreeWX 2.04,2013-05-13 11:57:00,
2013-05-13 06:02:00,56.7,30.0,25.22,NNW,340,6.0,9.2,36,0.00,,,-99.99,FreeWX 2.04,2013-05-13 12:02:00,
2013-05-13 06:07:00,56.3,29.7,25.22,North,355,6.0,9.2,36,0.00,,,-99.99,FreeWX 2.04,2013-05-13 12:07:00,
2013-05-13 06:12:00,56.3,29.7,25.22,North,1,5.0,9.2,36,0.00,,,-99.99,FreeWX 2.04,2013-05-13 12:12:00,
2013-05-13 06:17:00,56.7,29.3,25.22,North,357,6.0,10.5,35,0.00,,,-99.99,FreeWX 2.04,2013-05-13 12:17:00,
2013-05-13 06:22:00,56.5,29.8,25.22,North,354,6.0,9.2,36,0.00,,,-99.99,FreeWX 2.04,2013-05-13 12:22:00,
2013-05-13 06:27:00,56.7,29.3,25.22,North,355,6.0,9.2,35,0.00,,,-99.99,FreeWX 2.04,2013-05-13 12:27:00,
2013-05-13 06:32:00,56.8,29.5,25.22,North,352,7.0,10.5,35,0.00,,,-99.99,FreeWX 2.04,2013-05-13 12:32:00,
2013-05-13 06:37:00,57.2,29.8,25.22,NNW,345,7.0,9.6,35,0.00,,,-99.99,FreeWX 2.04,2013-05-13 12:37:00,
2013-05-13 06:42:00,57.2,29.8,25.22,NNW,342,7.0,10.5,35,0.00,,,-99.99,FreeWX 2.04,2013-05-13 12:42:00,
2013-05-13 06:47:00,57.2,29.8,25.22,NNW,342,7.0,8.3,35,0.00,,,-99.99,FreeWX 2.04,2013-05-13 12:47:00,
2013-05-13 06:52:00,56.8,29.5,25.22,North,350,5.0,7.4,35,0.00,,,-99.99,FreeWX 2.04,2013-05-13 12:52:00,
2013-05-13 06:57:00,56.3,29.7,25.22,North,1,3.0,4.0,36,0.00,,,-99.99,FreeWX 2.04,2013-05-13 12:57:00,
2013-05-13 07:02:00,56.1,30.2,25.22,North,3,2.0,4.5,37,0.00,,,-99.99,FreeWX 2.04,2013-05-13 13:02:00,
2013-05-13 07:07:00,56.1,30.2,25.22,North,4,1.0,4.5,37,0.00,,,-99.99,FreeWX 2.04,2013-05-13 13:07:00,
2013-05-13 07:12:00,56.3,30.4,25.25,North,5,1.0,4.0,37,0.00,,,-99.99,FreeWX 2.04,2013-05-13 13:12:00,
2013-05-13 07:17:00,57.2,30.6,25.25,North,355,2.0,5.8,36,0.00,,,-99.99,FreeWX 2.04,2013-05-13 13:17:00,
2013-05-13 07:22:00,57.4,30.0,25.25,NNW,347,4.0,6.9,35,0.00,,,-99.99,FreeWX 2.04,2013-05-13 13:22:00,
2013-05-13 07:27:00,57.6,30.2,25.25,NNW,345,5.0,7.4,35,0.00,,,-99.99,FreeWX 2.04,2013-05-13 13:27:00,
2013-05-13 07:32:00,57.7,30.2,25.25,NNW,338,5.0,6.7,35,0.00,,,-99.99,FreeWX 2.04,2013-05-13 13:32:00,
2013-05-13 07:37:00,58.3,30.7,25.25,NNW,339,5.0,6.9,35,0.00,,,-99.99,FreeWX 2.04,2013-05-13 13:37:00,
2013-05-13 07:42:00,58.6,30.4,25.25,North,349,6.0,9.6,34,0.00,,,-99.99,FreeWX 2.04,2013-05-13 13:42:00,
2013-05-13 07:47:00,59.2,30.9,25.25,North,355,6.0,9.6,34,0.00,,,-99.99,FreeWX 2.04,2013-05-13 13:47:00,
2013-05-13 07:52:00,59.4,30.9,25.25,NNW,347,6.0,8.7,34,0.00,,,-99.99,FreeWX 2.04,2013-05-13 13:52:00,
2013-05-13 07:57:00,59.7,29.8,25.25,NNW,337,7.0,11.2,32,0.00,,,-99.99,FreeWX 2.04,2013-05-13 13:57:00,
2013-05-13 08:02:00,60.1,29.3,25.25,NNW,337,7.0,10.1,31,0.00,,,-99.99,FreeWX 2.04,2013-05-13 14:02:00,
2013-05-13 08:07:00,60.6,29.8,25.25,NNW,341,7.0,10.5,31,0.00,,,-99.99,FreeWX 2.04,2013-05-13 14:07:00,
2013-05-13 08:12:00,60.8,29.1,25.25,NNW,341,7.0,11.0,30,0.00,,,-99.99,FreeWX 2.04,2013-05-13 14:12:00,
2013-05-13 08:17:00,61.2,27.0,25.25,NNW,341,7.0,13.4,27,0.00,,,-99.99,FreeWX 2.04,2013-05-13 14:17:00,
2013-05-13 08:22:00,61.5,28.0,25.25,North,352,8.0,12.5,28,0.00,,,-99.99,FreeWX 2.04,2013-05-13 14:22:00,
2013-05-13 08:27:00,61.5,28.9,25.25,North,358,7.0,8.7,29,0.00,,,-99.99,FreeWX 2.04,2013-05-13 14:27:00,
2013-05-13 08:32:00,61.9,27.5,25.25,North,0,6.0,9.2,27,0.00,,,-99.99,FreeWX 2.04,2013-05-13 14:32:00,
2013-05-13 08:37:00,62.2,27.9,25.25,North,356,6.0,8.7,27,0.00,,,-99.99,FreeWX 2.04,2013-05-13 14:37:00,
2013-05-13 08:42:00,62.2,27.0,25.25,North,350,7.0,11.6,26,0.00,,,-99.99,FreeWX 2.04,2013-05-13 14:42:00,
2013-05-13 08:47:00,62.1,25.9,25.25,NNW,342,7.0,11.0,25,0.00,,,-99.99,FreeWX 2.04,2013-05-13 14:47:00,
2013-05-13 08:52:00,63.0,27.5,25.25,NNW,344,7.0,11.2,26,0.00,,,-99.99,FreeWX 2.04,2013-05-13 14:52:00,
2013-05-13 08:57:00,63.1,26.8,25.25,North,349,6.0,9.2,25,0.00,,,-99.99,FreeWX 2.04,2013-05-13 14:57:00,
2013-05-13 09:02:00,63.1,26.8,25.25,NNW,342,7.0,10.5,25,0.00,,,-99.99,FreeWX 2.04,2013-05-13 15:02:00,
2013-05-13 09:07:00,63.5,26.1,25.25,NNW,336,7.0,9.6,24,0.00,,,-99.99,FreeWX 2.04,2013-05-13 15:07:00,
2013-05-13 09:12:00,64.4,26.8,25.25,NNW,342,7.0,11.6,24,0.00,,,-99.99,FreeWX 2.04,2013-05-13 15:12:00,
2013-05-13 09:17:00,65.1,27.5,25.25,North,352,7.0,12.1,24,0.00,,,-99.99,FreeWX 2.04,2013-05-13 15:17:00,
2013-05-13 09:22:00,65.7,26.8,25.25,North,355,7.0,12.1,23,0.00,,,-99.99,FreeWX 2.04,2013-05-13 15:22:00,
2013-05-13 09:27:00,66.7,27.7,25.25,North,359,7.0,10.5,23,0.00,,,-99.99,FreeWX 2.04,2013-05-13 15:27:00,
2013-05-13 09:32:00,66.9,24.6,25.25,North,352,7.0,10.5,20,0.00,,,-99.99,FreeWX 2.04,2013-05-13 15:32:00,
2013-05-13 09:37:00,67.6,27.5,25.25,NNW,339,7.0,12.5,22,0.00,,,-99.99,FreeWX 2.04,2013-05-13 15:37:00,
2013-05-13 09:42:00,67.3,21.0,25.25,NNW,340,7.0,11.6,17,0.00,,,-99.99,FreeWX 2.04,2013-05-13 15:42:00,
2013-05-13 09:47:00,67.6,21.2,25.25,NNW,342,8.0,13.0,17,0.00,,,-99.99,FreeWX 2.04,2013-05-13 15:47:00,
2013-05-13 09:52:00,67.8,21.4,25.25,NNW,345,9.0,12.5,17,0.00,,,-99.99,FreeWX 2.04,2013-05-13 15:52:00,
2013-05-13 09:57:00,68.4,21.9,25.25,NNW,345,8.0,12.1,17,0.00,,,-99.99,FreeWX 2.04,2013-05-13 15:57:00,
2013-05-13 10:02:00,68.2,18.9,25.25,NNW,341,8.0,12.5,15,0.00,,,-99.99,FreeWX 2.04,2013-05-13 16:02:00,
2013-05-13 10:07:00,69.1,18.0,25.25,NNW,346,8.0,12.1,14,0.00,,,-99.99,FreeWX 2.04,2013-05-13 16:07:00,
2013-05-13 10:12:00,69.8,18.5,25.25,North,351,8.0,12.5,14,0.00,,,-99.99,FreeWX 2.04,2013-05-13 16:12:00,
2013-05-13 10:17:00,69.6,14.7,25.25,NNW,348,8.0,11.6,12,0.00,,,-99.99,FreeWX 2.04,2013-05-13 16:17:00,
2013-05-13 10:22:00,70.2,15.3,25.25,North,350,8.0,12.5,12,0.00,,,-99.99,FreeWX 2.04,2013-05-13 16:22:00,
2013-05-13 10:27:00,70.3,15.3,25.25,NNW,348,7.0,8.7,12,0.00,,,-99.99,FreeWX 2.04,2013-05-13 16:27:00,
2013-05-13 10:32:00,70.7,15.6,25.25,NNW,340,6.0,10.5,12,0.00,,,-99.99,FreeWX 2.04,2013-05-13 16:32:00,
2013-05-13 10:37:00,70.7,15.6,25.25,NNW,344,6.0,10.5,12,0.00,,,-99.99,FreeWX 2.04,2013-05-13 16:37:00,
2013-05-13 10:42:00,72.1,14.7,25.25,NNW,348,6.0,10.1,11,0.00,,,-99.99,FreeWX 2.04,2013-05-13 16:42:00,
2013-05-13 10:47:00,71.4,14.2,25.25,NNW,337,6.0,11.2,11,0.00,,,-99.99,FreeWX 2.04,2013-05-13 16:47:00,
2013-05-13 10:52:00,72.7,15.1,25.25,NNW,336,6.0,11.0,11,0.00,,,-99.99,FreeWX 2.04,2013-05-13 16:52:00,
2013-05-13 10:58:00,72.9,-99.9,25.25,NNW,336,6.0,9.6,-999,0.00,,,-99.99,FreeWX 2.04,2013-05-13 16:58:00,
2013-05-13 11:03:00,73.2,-99.9,25.25,NW,317,6.0,9.6,-999,0.00,,,-99.99,FreeWX 2.04,2013-05-13 17:03:00,
2013-05-13 11:08:00,73.8,-99.9,25.25,NW,312,6.0,9.6,-999,0.00,,,-99.99,FreeWX 2.04,2013-05-13 17:08:00,
2013-05-13 11:13:00,73.8,-99.9,25.25,NW,314,6.0,8.7,-999,0.00,,,-99.99,FreeWX 2.04,2013-05-13 17:13:00,
2013-05-13 11:18:00,74.3,-99.9,25.25,NW,315,6.0,11.0,-999,0.00,,,-99.99,FreeWX 2.04,2013-05-13 17:18:00,
2013-05-13 11:23:00,75.6,-99.9,25.25,NW,314,5.0,9.6,-999,0.00,,,-99.99,FreeWX 2.04,2013-05-13 17:23:00,
2013-05-13 11:28:00,74.8,-99.9,25.22,WNW,299,4.0,8.3,-999,0.00,,,-99.99,FreeWX 2.04,2013-05-13 17:28:00,
2013-05-13 11:33:00,76.3,-99.9,25.22,NW,309,4.0,8.7,-999,0.00,,,-99.99,FreeWX 2.04,2013-05-13 17:33:00,
2013-05-13 11:38:00,76.8,-99.9,25.22,NNW,334,4.0,6.3,-999,0.00,,,-99.99,FreeWX 2.04,2013-05-13 17:38:00,
2013-05-13 11:43:00,78.1,-99.9,25.22,North,355,3.0,8.3,-999,0.00,,,-99.99,FreeWX 2.04,2013-05-13 17:43:00,
2013-05-13 11:48:00,77.5,-99.9,25.22,NNW,345,4.0,7.8,-999,0.00,,,-99.99,FreeWX 2.04,2013-05-13 17:48:00,
2013-05-13 11:53:00,76.6,-99.9,25.22,NW,312,5.0,9.6,-999,0.00,,,-99.99,FreeWX 2.04,2013-05-13 17:53:00,
2013-05-13 11:58:00,77.2,-99.9,25.22,WNW,284,5.0,8.3,-999,0.00,,,-99.99,FreeWX 2.04,2013-05-13 17:58:00,
2013-05-13 12:03:00,77.9,-99.9,25.22,WNW,296,4.0,5.8,-999,0.00,,,-99.99,FreeWX 2.04,2013-05-13 18:03:00,
2013-05-13 12:08:00,78.4,-99.9,25.22,NW,324,4.0,7.4,-999,0.00,,,-99.99,FreeWX 2.04,2013-05-13 18:08:00,
2013-05-13 12:13:00,78.6,-99.9,25.22,NW,307,4.0,6.3,-999,0.00,,,-99.99,FreeWX 2.04,2013-05-13 18:13:00,
2013-05-13 12:18:00,77.9,-99.9,25.22,WNW,301,4.0,7.4,-999,0.00,,,-99.99,FreeWX 2.04,2013-05-13 18:18:00,
2013-05-13 12:23:00,78.3,-99.9,25.22,NNW,327,4.0,6.7,-999,0.00,,,-99.99,FreeWX 2.04,2013-05-13 18:23:00,
2013-05-13 12:28:00,78.8,-99.9,25.22,North,9,4.0,9.6,-999,0.00,,,-99.99,FreeWX 2.04,2013-05-13 18:28:00,
2013-05-13 12:33:00,78.6,-99.9,25.22,NW,326,5.0,10.5,-999,0.00,,,-99.99,FreeWX 2.04,2013-05-13 18:33:00,
2013-05-13 12:38:00,79.3,-99.9,25.22,WSW,257,5.0,8.7,-999,0.00,,,-99.99,FreeWX 2.04,2013-05-13 18:38:00,
2013-05-13 12:43:00,78.4,-99.9,25.22,SW,227,5.0,10.5,-999,0.00,,,-99.99,FreeWX 2.04,2013-05-13 18:43:00,
2013-05-13 12:48:00,79.7,-99.9,25.22,South,188,5.0,8.7,-999,0.00,,,-99.99,FreeWX 2.04,2013-05-13 18:48:00,
2013-05-13 12:53:00,79.5,-99.9,25.22,South,180,5.0,10.5,-999,0.00,,,-99.99,FreeWX 2.04,2013-05-13 18:53:00,
2013-05-13 12:58:00,80.6,-99.9,25.22,SSW,203,6.0,8.3,-999,0.00,,,-99.99,FreeWX 2.04,2013-05-13 18:58:00,
2013-05-13 13:03:00,81.1,-99.9,25.22,SSW,202,6.0,8.7,-999,0.00,,,-99.99,FreeWX 2.04,2013-05-13 19:03:00,
2013-05-13 13:08:00,81.0,-99.9,25.22,SSW,205,6.0,9.6,-999,0.00,,,-99.99,FreeWX 2.04,2013-05-13 19:08:00,
2013-05-13 13:13:00,80.6,-99.9,25.19,SSW,201,6.0,10.5,-999,0.00,,,-99.99,FreeWX 2.04,2013-05-13 19:13:00,
2013-05-13 13:18:00,80.6,-99.9,25.19,South,182,6.0,10.1,-999,0.00,,,-99.99,FreeWX 2.04,2013-05-13 19:18:00,
2013-05-13 13:23:00,80.4,-99.9,25.19,SSW,194,6.0,11.0,-999,0.00,,,-99.99,FreeWX 2.04,2013-05-13 19:23:00,
2013-05-13 13:28:00,80.8,-99.9,25.19,WSW,254,6.0,10.1,-999,0.00,,,-99.99,FreeWX 2.04,2013-05-13 19:28:00,
2013-05-13 13:33:00,81.5,-99.9,25.19,WSW,239,6.0,12.1,-999,0.00,,,-99.99,FreeWX 2.04,2013-05-13 19:33:00,
2013-05-13 13:38:00,81.7,-99.9,25.19,SSW,209,6.0,9.6,-999,0.00,,,-99.99,FreeWX 2.04,2013-05-13 19:38:00,
2013-05-13 13:43:00,82.0,-99.9,25.19,SW,229,5.0,9.2,-999,0.00,,,-99.99,FreeWX 2.04,2013-05-13 19:43:00,
2013-05-13 13:48:00,82.0,-99.9,25.19,WSW,249,5.0,10.1,-999,0.00,,,-99.99,FreeWX 2.04,2013-05-13 19:48:00,
2013-05-13 13:53:00,82.4,-99.9,25.19,SW,227,6.0,11.6,-999,0.00,,,-99.99,FreeWX 2.04,2013-05-13 19:53:00,
2013-05-13 13:58:00,82.4,-99.9,25.19,SSW,195,7.0,13.0,-999,0.00,,,-99.99,FreeWX 2.04,2013-05-13 19:58:00,
2013-05-13 14:03:00,82.8,-99.9,25.19,SSW,198,6.0,8.3,-999,0.00,,,-99.99,FreeWX 2.04,2013-05-13 20:03:00,
2013-05-13 14:14:00,82.9,-99.9,25.19,SSW,192,7.0,15.4,-999,0.00,,,-99.99,FreeWX 2.04,2013-05-13 20:14:00,
2013-05-13 14:19:00,84.0,-99.9,25.19,South,180,6.0,11.2,-999,0.00,,,-99.99,FreeWX 2.04,2013-05-13 20:19:00,
2013-05-13 14:24:00,83.8,-99.9,25.16,SSW,211,6.0,13.4,-999,0.00,,,-99.99,FreeWX 2.04,2013-05-13 20:24:00,
2013-05-13 14:29:00,82.6,-99.9,25.16,WSW,244,8.0,14.3,-999,0.00,,,-99.99,FreeWX 2.04,2013-05-13 20:29:00,
2013-05-13 14:34:00,83.1,-99.9,25.16,WSW,256,7.0,11.0,-999,0.00,,,-99.99,FreeWX 2.04,2013-05-13 20:34:00,
2013-05-13 14:39:00,83.7,-99.9,25.16,WSW,254,8.0,13.4,-999,0.00,,,-99.99,FreeWX 2.04,2013-05-13 20:39:00,
2013-05-13 14:44:00,84.7,-99.9,25.16,SW,227,8.0,12.5,-999,0.00,,,-99.99,FreeWX 2.04,2013-05-13 20:44:00,
2013-05-13 14:49:00,85.5,-99.9,25.16,SSW,202,6.0,14.3,-999,0.00,,,-99.99,FreeWX 2.04,2013-05-13 20:49:00,
2013-05-13 14:54:00,84.4,-99.9,25.16,SSW,200,8.0,14.8,-999,0.00,,,-99.99,FreeWX 2.04,2013-05-13 20:54:00,
2013-05-13 14:59:00,84.4,-99.9,25.16,SSW,212,8.0,13.0,-999,0.00,,,-99.99,FreeWX 2.04,2013-05-13 20:59:00,
2013-05-13 15:04:00,84.2,-99.9,25.16,WSW,237,7.0,13.9,-999,0.00,,,-99.99,FreeWX 2.04,2013-05-13 21:04:00,
2013-05-13 15:09:00,84.2,-99.9,25.16,SW,230,8.0,11.0,-999,0.00,,,-99.99,FreeWX 2.04,2013-05-13 21:09:00,
2013-05-13 15:14:00,84.6,-99.9,25.16,SW,217,7.0,13.0,-999,0.00,,,-99.99,FreeWX 2.04,2013-05-13 21:14:00,
2013-05-13 15:19:00,84.4,-99.9,25.16,WSW,249,8.0,15.2,-999,0.00,,,-99.99,FreeWX 2.04,2013-05-13 21:19:00,
2013-05-13 15:24:00,83.7,-99.9,25.16,WSW,252,7.0,13.9,-999,0.00,,,-99.99,FreeWX 2.04,2013-05-13 21:24:00,
2013-05-13 15:29:00,84.6,-99.9,25.16,WNW,285,5.0,8.3,-999,0.00,,,-99.99,FreeWX 2.04,2013-05-13 21:29:00,
2013-05-13 15:34:00,85.3,-99.9,25.16,North,357,5.0,11.6,-999,0.00,,,-99.99,FreeWX 2.04,2013-05-13 21:34:00,
2013-05-13 15:39:00,85.6,-99.9,25.13,SSW,197,7.0,12.1,-999,0.00,,,-99.99,FreeWX 2.04,2013-05-13 21:39:00,
2013-05-13 15:44:00,84.7,-99.9,25.13,SW,219,8.0,14.3,-999,0.00,,,-99.99,FreeWX 2.04,2013-05-13 21:44:00,
2013-05-13 15:49:00,84.9,-99.9,25.13,West,264,8.0,11.2,-999,0.00,,,-99.99,FreeWX 2.04,2013-05-13 21:49:00,
2013-05-13 15:54:00,85.3,-99.9,25.13,WSW,256,8.0,18.6,-999,0.00,,,-99.99,FreeWX 2.04,2013-05-13 21:54:00,
2013-05-13 15:59:00,85.8,-99.9,25.13,SW,217,10.0,16.3,-999,0.00,,,-99.99,FreeWX 2.04,2013-05-13 21:59:00,
2013-05-13 16:04:00,85.1,-99.9,25.13,SW,221,9.0,15.4,-999,0.00,,,-99.99,FreeWX 2.04,2013-05-13 22:04:00,
2013-05-13 16:09:00,85.6,-99.9,25.13,SW,220,10.0,17.2,-999,0.00,,,-99.99,FreeWX 2.04,2013-05-13 22:09:00,
2013-05-13 16:14:00,85.8,-99.9,25.13,South,189,9.0,17.2,-999,0.00,,,-99.99,FreeWX 2.04,2013-05-13 22:14:00,
2013-05-13 16:19:00,85.3,-99.9,25.13,SSW,196,8.0,14.8,-999,0.00,,,-99.99,FreeWX 2.04,2013-05-13 22:19:00,
2013-05-13 16:24:00,85.1,-99.9,25.13,SW,236,7.0,12.1,-999,0.00,,,-99.99,FreeWX 2.04,2013-05-13 22:24:00,
2013-05-13 16:29:00,84.7,-99.9,25.13,WSW,257,8.0,13.0,-999,0.00,,,-99.99,FreeWX 2.04,2013-05-13 22:29:00,
2013-05-13 16:34:00,85.5,-99.9,25.13,West,265,7.0,10.1,-999,0.00,,,-99.99,FreeWX 2.04,2013-05-13 22:34:00,
2013-05-13 16:39:00,86.4,-99.9,25.10,WSW,257,8.0,16.3,-999,0.00,,,-99.99,FreeWX 2.04,2013-05-13 22:39:00,
2013-05-13 16:44:00,85.6,-99.9,25.10,SSW,208,9.0,14.8,-999,0.00,,,-99.99,FreeWX 2.04,2013-05-13 22:44:00,
2013-05-13 16:49:00,86.5,-99.9,25.10,South,189,9.0,14.8,-999,0.00,,,-99.99,FreeWX 2.04,2013-05-13 22:49:00,
2013-05-13 16:54:00,86.2,-99.9,25.10,SSW,199,10.0,21.5,-999,0.00,,,-99.99,FreeWX 2.04,2013-05-13 22:54:00,
2013-05-13 16:59:00,86.2,-99.9,25.10,SSW,210,9.0,13.4,-999,0.00,,,-99.99,FreeWX 2.04,2013-05-13 22:59:00,
2013-05-13 17:04:00,86.5,-99.9,25.10,South,186,8.0,14.3,-999,0.00,,,-99.99,FreeWX 2.04,2013-05-13 23:04:00,
2013-05-13 17:10:00,85.6,-99.9,25.10,South,178,9.0,12.5,-999,0.00,,,-99.99,FreeWX 2.04,2013-05-13 23:10:00,
2013-05-13 17:15:00,85.8,-99.9,25.10,SSW,194,8.0,11.6,-999,0.00,,,-99.99,FreeWX 2.04,2013-05-13 23:15:00,
2013-05-13 17:20:00,85.6,-99.9,25.10,SSW,195,7.0,10.5,-999,0.00,,,-99.99,FreeWX 2.04,2013-05-13 23:20:00,
2013-05-13 17:25:00,85.6,-99.9,25.10,SSW,206,8.0,15.2,-999,0.00,,,-99.99,FreeWX 2.04,2013-05-13 23:25:00,
2013-05-13 17:30:00,86.0,-99.9,25.10,SSW,213,9.0,13.9,-999,0.00,,,-99.99,FreeWX 2.04,2013-05-13 23:30:00,
2013-05-13 17:35:00,85.6,-99.9,25.10,SW,215,7.0,9.2,-999,0.00,,,-99.99,FreeWX 2.04,2013-05-13 23:35:00,
2013-05-13 17:40:00,85.5,-99.9,25.10,SSW,199,6.0,12.5,-999,0.00,,,-99.99,FreeWX 2.04,2013-05-13 23:40:00,
2013-05-13 17:45:00,85.5,-99.9,25.10,South,190,8.0,14.3,-999,0.00,,,-99.99,FreeWX 2.04,2013-05-13 23:45:00,
2013-05-13 17:50:00,84.9,-99.9,25.10,SSW,195,8.0,12.1,-999,0.00,,,-99.99,FreeWX 2.04,2013-05-13 23:50:00,
2013-05-13 17:55:00,85.3,-99.9,25.10,SSW,195,8.0,13.0,-999,0.00,,,-99.99,FreeWX 2.04,2013-05-13 23:55:00,
2013-05-13 18:00:00,85.1,-99.9,25.10,SSW,209,7.0,13.4,-999,0.00,,,-99.99,FreeWX 2.04,2013-05-14 00:00:00,
2013-05-13 18:05:00,84.6,-99.9,25.10,SW,231,8.0,12.1,-999,0.00,,,-99.99,FreeWX 2.04,2013-05-14 00:05:00,
2013-05-13 18:10:00,84.9,-99.9,25.07,WSW,246,8.0,11.2,-999,0.00,,,-99.99,FreeWX 2.04,2013-05-14 00:10:00,
2013-05-13 18:15:00,85.3,-99.9,25.07,SW,218,8.0,12.1,-999,0.00,,,-99.99,FreeWX 2.04,2013-05-14 00:15:00,
2013-05-13 18:20:00,85.1,-99.9,25.07,SSW,197,8.0,11.2,-999,0.00,,,-99.99,FreeWX 2.04,2013-05-14 00:20:00,
2013-05-13 18:25:00,84.9,-99.9,25.07,SSW,200,9.0,13.4,-999,0.00,,,-99.99,FreeWX 2.04,2013-05-14 00:25:00,
2013-05-13 18:30:00,84.7,-99.9,25.07,South,187,9.0,13.4,-999,0.00,,,-99.99,FreeWX 2.04,2013-05-14 00:30:00,
2013-05-13 18:35:00,84.2,-99.9,25.07,SSW,194,8.0,12.1,-999,0.00,,,-99.99,FreeWX 2.04,2013-05-14 00:35:00,
2013-05-13 18:40:00,84.4,-99.9,25.07,SSW,200,7.0,11.6,-999,0.00,,,-99.99,FreeWX 2.04,2013-05-14 00:40:00,
2013-05-13 18:45:00,84.2,-99.9,25.07,SSW,192,8.0,12.5,-999,0.00,,,-99.99,FreeWX 2.04,2013-05-14 00:45:00,
2013-05-13 18:50:00,83.8,-99.9,25.07,SSW,200,7.0,9.2,-999,0.00,,,-99.99,FreeWX 2.04,2013-05-14 00:50:00,
2013-05-13 18:55:00,84.0,-99.9,25.07,SSW,203,6.0,9.2,-999,0.00,,,-99.99,FreeWX 2.04,2013-05-14 00:55:00,
2013-05-13 19:00:00,83.8,-99.9,25.07,SSW,196,7.0,10.5,-999,0.00,,,-99.99,FreeWX 2.04,2013-05-14 01:00:00,
2013-05-13 19:05:00,83.7,-99.9,25.07,SSW,196,8.0,11.0,-999,0.00,,,-99.99,FreeWX 2.04,2013-05-14 01:05:00,
2013-05-13 19:10:00,83.1,-99.9,25.07,SSW,213,7.0,10.1,-999,0.00,,,-99.99,FreeWX 2.04,2013-05-14 01:10:00,
2013-05-13 19:15:00,82.8,-99.9,25.07,SW,233,6.0,9.2,-999,0.00,,,-99.99,FreeWX 2.04,2013-05-14 01:15:00,
2013-05-13 19:20:00,82.4,-99.9,25.07,SW,236,6.0,9.2,-999,0.00,,,-99.99,FreeWX 2.04,2013-05-14 01:20:00,
2013-05-13 19:25:00,82.2,-99.9,25.07,WSW,237,6.0,8.7,-999,0.00,,,-99.99,FreeWX 2.04,2013-05-14 01:25:00,
2013-05-13 19:30:00,82.0,-99.9,25.07,SSW,204,5.0,6.7,-999,0.00,,,-99.99,FreeWX 2.04,2013-05-14 01:30:00,
2013-05-13 19:35:00,81.7,-99.9,25.07,SSE,165,4.0,6.9,-999,0.00,,,-99.99,FreeWX 2.04,2013-05-14 01:35:00,
2013-05-13 19:40:00,81.7,-99.9,25.07,SSE,158,4.0,4.9,-999,0.00,,,-99.99,FreeWX 2.04,2013-05-14 01:40:00,
2013-05-13 19:45:00,81.3,-99.9,25.07,SSE,159,3.0,4.5,-999,0.00,,,-99.99,FreeWX 2.04,2013-05-14 01:45:00,
2013-05-13 19:50:00,81.0,-99.9,25.07,SSE,155,3.0,4.9,-999,0.00,,,-99.99,FreeWX 2.04,2013-05-14 01:50:00,
2013-05-13 19:55:00,80.8,-99.9,25.07,SE,139,3.0,5.8,-999,0.00,,,-99.99,FreeWX 2.04,2013-05-14 01:55:00,
2013-05-13 20:00:00,80.4,-99.9,25.07,ESE,120,3.0,5.8,-999,0.00,,,-99.99,FreeWX 2.04,2013-05-14 02:00:00,
2013-05-13 20:05:00,80.2,-99.9,25.07,ESE,114,4.0,7.8,-999,0.00,,,-99.99,FreeWX 2.04,2013-05-14 02:05:00,
2013-05-13 20:10:00,79.9,-99.9,25.07,ESE,111,4.0,6.9,-999,0.00,,,-99.99,FreeWX 2.04,2013-05-14 02:10:00,
2013-05-13 20:15:00,79.5,-99.9,25.07,ESE,116,4.0,5.8,-999,0.00,,,-99.99,FreeWX 2.04,2013-05-14 02:15:00,
2013-05-13 20:20:00,78.8,-99.9,25.07,ESE,121,3.0,6.3,-999,0.00,,,-99.99,FreeWX 2.04,2013-05-14 02:20:00,
2013-05-13 20:25:00,78.4,-99.9,25.07,ESE,122,3.0,5.4,-999,0.00,,,-99.99,FreeWX 2.04,2013-05-14 02:25:00,
2013-05-13 20:30:00,78.1,-99.9,25.07,SE,124,3.0,6.9,-999,0.00,,,-99.99,FreeWX 2.04,2013-05-14 02:30:00,
2013-05-13 20:35:00,77.9,-99.9,25.07,ESE,115,4.0,7.8,-999,0.00,,,-99.99,FreeWX 2.04,2013-05-14 02:35:00,
2013-05-13 20:40:00,77.7,-99.9,25.07,East,99,4.0,6.9,-999,0.00,,,-99.99,FreeWX 2.04,2013-05-14 02:40:00,
2013-05-13 20:45:00,77.7,-99.9,25.07,East,92,5.0,8.3,-999,0.00,,,-99.99,FreeWX 2.04,2013-05-14 02:45:00,
2013-05-13 20:50:00,77.4,-99.9,25.07,East,91,4.0,6.7,-999,0.00,,,-99.99,FreeWX 2.04,2013-05-14 02:50:00,
2013-05-13 20:55:00,77.2,-99.9,25.07,East,89,4.0,8.3,-999,0.00,,,-99.99,FreeWX 2.04,2013-05-14 02:55:00,
2013-05-13 21:00:00,77.7,-99.9,25.07,East,101,5.0,9.2,-999,0.00,,,-99.99,FreeWX 2.04,2013-05-14 03:00:00,
2013-05-13 21:05:00,77.5,-99.9,25.07,ESE,104,6.0,11.2,-999,0.00,,,-99.99,FreeWX 2.04,2013-05-14 03:05:00,
2013-05-13 21:10:00,77.9,-99.9,25.07,East,101,7.0,11.6,-999,0.00,,,-99.99,FreeWX 2.04,2013-05-14 03:10:00,
2013-05-13 21:15:00,77.4,-99.9,25.07,East,100,7.0,11.2,-999,0.00,,,-99.99,FreeWX 2.04,2013-05-14 03:15:00,
2013-05-13 21:20:00,77.9,-99.9,25.07,ESE,104,7.0,11.6,-999,0.00,,,-99.99,FreeWX 2.04,2013-05-14 03:20:00,
2013-05-13 21:25:00,77.5,-99.9,25.10,ESE,106,6.0,7.8,-999,0.00,,,-99.99,FreeWX 2.04,2013-05-14 03:25:00,
2013-05-13 21:30:00,76.8,-99.9,25.10,East,91,4.0,9.2,-999,0.00,,,-99.99,FreeWX 2.04,2013-05-14 03:30:00,
2013-05-13 21:35:00,76.6,-99.9,25.10,East,92,3.0,5.4,-999,0.00,,,-99.99,FreeWX 2.04,2013-05-14 03:35:00,
2013-05-13 21:40:00,76.1,-99.9,25.10,East,91,2.0,5.8,-999,0.00,,,-99.99,FreeWX 2.04,2013-05-14 03:40:00,
2013-05-13 21:45:00,76.1,-99.9,25.10,ENE,72,2.0,4.5,-999,0.00,,,-99.99,FreeWX 2.04,2013-05-14 03:45:00,
2013-05-13 21:50:00,75.0,-99.9,25.10,NNE,27,4.0,7.4,-999,0.00,,,-99.99,FreeWX 2.04,2013-05-14 03:50:00,
2013-05-13 21:55:00,74.7,-99.9,25.10,WNW,288,6.0,8.3,-999,0.00,,,-99.99,FreeWX 2.04,2013-05-14 03:55:00,
2013-05-13 22:00:00,74.5,-99.9,25.10,West,266,6.0,8.3,-999,0.00,,,-99.99,FreeWX 2.04,2013-05-14 04:00:00,
2013-05-13 22:05:00,75.0,-99.9,25.10,WSW,251,7.0,10.1,-999,0.00,,,-99.99,FreeWX 2.04,2013-05-14 04:05:00,
2013-05-13 22:10:00,75.6,-99.9,25.10,WSW,243,7.0,11.0,-999,0.00,,,-99.99,FreeWX 2.04,2013-05-14 04:10:00,
2013-05-13 22:15:00,74.8,-99.9,25.10,WSW,248,6.0,7.4,-999,0.00,,,-99.99,FreeWX 2.04,2013-05-14 04:15:00,
2013-05-13 22:20:00,74.1,-99.9,25.10,WSW,257,4.0,6.3,-999,0.00,,,-99.99,FreeWX 2.04,2013-05-14 04:20:00,
2013-05-13 22:25:00,74.1,-99.9,25.10,WSW,258,2.0,3.6,-999,0.00,,,-99.99,FreeWX 2.04,2013-05-14 04:25:00,
2013-05-13 22:30:00,74.5,-99.9,25.10,West,259,2.0,4.9,-999,0.00,,,-99.99,FreeWX 2.04,2013-05-14 04:30:00,
2013-05-13 22:35:00,74.1,-99.9,25.10,West,260,1.0,0.0,-999,0.00,,,-99.99,FreeWX 2.04,2013-05-14 04:35:00,
2013-05-13 22:40:00,73.4,-99.9,25.10,North,-999,0.0,4.0,-999,0.00,,,-99.99,FreeWX 2.04,2013-05-14 04:40:00,
2013-05-13 22:45:00,73.2,-99.9,25.10,West,260,1.0,3.6,-999,0.00,,,-99.99,FreeWX 2.04,2013-05-14 04:45:00,
2013-05-13 22:50:00,72.7,-99.9,25.10,West,261,2.0,6.3,-999,0.00,,,-99.99,FreeWX 2.04,2013-05-14 04:50:00,
2013-05-13 22:55:00,72.7,-99.9,25.10,West,260,4.0,5.8,-999,0.00,,,-99.99,FreeWX 2.04,2013-05-14 04:55:00,
2013-05-13 23:00:00,72.5,-99.9,25.10,WSW,255,4.0,6.3,-999,0.00,,,-99.99,FreeWX 2.04,2013-05-14 05:00:00,
2013-05-13 23:05:00,72.5,-99.9,25.10,WSW,249,4.0,5.4,-999,0.00,,,-99.99,FreeWX 2.04,2013-05-14 05:05:00,
2013-05-13 23:10:00,73.0,-99.9,25.10,WSW,251,4.0,5.8,-999,0.00,,,-99.99,FreeWX 2.04,2013-05-14 05:10:00,
2013-05-13 23:15:00,73.0,-99.9,25.10,WSW,251,4.0,6.7,-999,0.00,,,-99.99,FreeWX 2.04,2013-05-14 05:15:00,
2013-05-13 23:20:00,72.0,-99.9,25.10,SW,228,4.0,5.4,-999,0.00,,,-99.99,FreeWX 2.04,2013-05-14 05:20:00,
2013-05-13 23:25:00,71.4,-99.9,25.10,SSW,205,3.0,4.9,-999,0.00,,,-99.99,FreeWX 2.04,2013-05-14 05:25:00,
2013-05-13 23:30:00,69.8,-99.9,25.10,South,191,3.0,5.4,-999,0.00,,,-99.99,FreeWX 2.04,2013-05-14 05:30:00,
2013-05-13 23:35:00,69.1,-99.9,25.10,South,182,2.0,4.9,-999,0.00,,,-99.99,FreeWX 2.04,2013-05-14 05:35:00,
2013-05-13 23:40:00,68.4,-99.9,25.10,SSW,196,2.0,4.5,-999,0.00,,,-99.99,FreeWX 2.04,2013-05-14 05:40:00,
2013-05-13 23:45:00,67.6,-99.9,25.10,SSW,209,2.0,4.0,-999,0.00,,,-99.99,FreeWX 2.04,2013-05-14 05:45:00,
2013-05-13 23:50:00,66.6,-99.9,25.10,SSW,199,2.0,4.5,-999,0.00,,,-99.99,FreeWX 2.04,2013-05-14 05:50:00,
2013-05-13 23:55:00,66.2,-99.9,25.10,South,182,1.0,3.1,-999,0.00,,,-99.99,FreeWX 2.04,2013-05-14 05:55:00,